Powrót do katalogu

FREGAT DEB

LostUNKNOWN
NORAD 46257·DEBRIS·🇷🇺 Russia

Wystrzelony Jul 18, 2011 z Baikonur Cosmodrome

Loading…

Następne Przeloty (najbliższe 24 godziny)

TLE

NieaktualneSource: Space-Track

Epoka: Aug 28, 2020, 07:12 UTC

1 46257U 11037KT  20241.30045476 -.00008515  00000-0 -11714+0 0  9998
2 46257  51.9814 247.6278 1899603 139.3785 236.5480  9.69224664   772

Śledź FREGAT DEB w czasie rzeczywistym z AllMySat

Download on the App Store